User: anonymous   Login
Location: Unspecified
(0.0000°N, 0.0000°E)
Time: 03:41:08
(UTC+00:00)
Language:

USA 149 - Orbit

View from above orbital plane
View from above orbital plane
View from above satellite
View from above satellite

Ground track
Ground track

The orbit data is extracted from the following two-line orbital elements,

1 26356U 00024A   17052.14048281 0.00000000  00000-0  00000-0 0    04
2 26356  10.3887  36.2405 0010396 314.5977  45.3207  1.00270000    07
Epoch (UTC): 21 February 2017 03:22:17
Eccentricity: 0.0010396
inclination: 10.3887°
perigee height: 35743 km
apogee height: 35830 km
right ascension of ascending node: 36.2405°
argument of perigee: 314.5977°
revolutions per day: 1.00270000
mean anomaly at epoch: 45.3207°
orbit number at epoch: 0

The dashed part of the orbit path shows where the satellite is in the earth's shadow,  

DLR